Location: Colonia Mina de C?rbuni
(46.1667°N, 22.7167°E)
Time: 06:04:35
(UTC+00:00)

Vanguard 1 Rocket - Pass Details

Date: 15 April 2024
Orbit: 650 x 4220 km, 34.3° (Epoch: 26 May)

Event Time Altitude Azimuth Distance (km) Brightness Sun altitude
Rises 23:40:51 0° 270° (W) 5,163 11.1 -31.7°
Enters shadow 23:42:46 - 265° (W) 4,805 10.8 -31.6°
Exits shadow 00:05:09 23° 168° (SSE) 5,564 10.9 -30.0°
Drops below altitude 10° 00:14:05 10° 151° (SSE) 7,152 11.6 -29.2°
Sets 00:21:13 0° 144° (SE) 8,403 12.1 -28.6°
